Time,TemperatureF,DewpointF,PressureIn,WindDirection,WindDirectionDegrees,WindSpeedMPH,WindSpeedGustMPH,Humidity,HourlyPrecipIn,Conditions,Clouds,dailyrainin,SoftwareType,DateUTC
2013-06-30 00:00:00,75.9,68.9,29.83,East,82,0.0,0.0,79,0.00,,---,0.00,VWS V14.01,2013-06-30 04:00:00,
2013-06-30 00:01:00,75.9,68.9,29.83,East,82,0.0,0.0,79,0.00,,---,0.00,VWS V14.01,2013-06-30 04:01:00,
2013-06-30 00:06:00,75.8,68.8,29.83,NNE,12,1.0,1.0,79,0.00,,---,0.00,VWS V14.01,2013-06-30 04:06:00,
2013-06-30 00:10:00,75.8,68.8,29.83,SSW,203,0.0,3.0,79,0.00,,---,0.00,VWS V14.01,2013-06-30 04:10:00,
2013-06-30 00:11:00,75.8,68.8,29.83,NNE,21,0.0,3.0,79,0.00,,---,0.00,VWS V14.01,2013-06-30 04:11:00,
2013-06-30 00:16:00,75.7,68.7,29.82,East,96,0.0,3.0,79,0.00,,---,0.00,VWS V14.01,2013-06-30 04:16:00,
2013-06-30 00:20:00,75.7,68.7,29.83,SSE,153,1.0,3.0,79,0.00,,---,0.00,VWS V14.01,2013-06-30 04:20:00,
2013-06-30 00:21:00,75.7,68.7,29.83,ENE,71,0.0,2.0,79,0.00,,---,0.00,VWS V14.01,2013-06-30 04:21:00,
2013-06-30 00:26:00,75.7,68.7,29.83,ESE,118,0.0,2.0,79,0.00,,---,0.00,VWS V14.01,2013-06-30 04:26:00,
2013-06-30 00:30:00,75.7,68.7,29.83,East,84,0.0,2.0,79,0.00,,---,0.00,VWS V14.01,2013-06-30 04:30:00,
2013-06-30 00:31:00,75.6,68.6,29.83,NNW,347,0.0,0.0,79,0.00,,---,0.00,VWS V14.01,2013-06-30 04:31:00,
2013-06-30 00:36:00,75.6,68.6,29.82,ENE,65,0.0,1.0,79,0.00,,---,0.00,VWS V14.01,2013-06-30 04:36:00,
2013-06-30 00:40:00,75.5,68.5,29.82,East,89,0.0,2.0,79,0.00,,---,0.00,VWS V14.01,2013-06-30 04:40:00,
2013-06-30 00:41:00,75.6,68.6,29.83,NNW,344,0.0,2.0,79,0.00,,---,0.00,VWS V14.01,2013-06-30 04:41:00,
2013-06-30 00:46:00,75.5,68.2,29.82,NNE,20,0.0,2.0,78,0.00,,---,0.00,VWS V14.01,2013-06-30 04:46:00,
2013-06-30 00:50:00,75.5,68.2,29.82,East,79,0.0,2.0,78,0.00,,---,0.00,VWS V14.01,2013-06-30 04:50:00,
2013-06-30 00:51:00,75.5,68.2,29.82,NE,56,1.0,3.0,78,0.00,,---,0.00,VWS V14.01,2013-06-30 04:51:00,
2013-06-30 00:56:00,75.5,68.2,29.82,NNE,18,0.0,3.0,78,0.00,,---,0.00,VWS V14.01,2013-06-30 04:56:00,
2013-06-30 01:00:00,75.5,68.2,29.82,East,101,0.0,3.0,78,0.00,,---,0.00,VWS V14.01,2013-06-30 05:00:00,
2013-06-30 01:01:00,75.5,68.2,29.82,ENE,74,2.0,2.0,78,0.00,,---,0.00,VWS V14.01,2013-06-30 05:01:00,
2013-06-30 01:06:00,75.4,68.1,29.82,East,79,0.0,2.0,78,0.00,,---,0.00,VWS V14.01,2013-06-30 05:06:00,
2013-06-30 01:10:00,75.4,68.1,29.82,East,79,0.0,2.0,78,0.00,,---,0.00,VWS V14.01,2013-06-30 05:10:00,
2013-06-30 01:11:00,75.4,68.1,29.82,NNE,25,0.0,0.0,78,0.00,,---,0.00,VWS V14.01,2013-06-30 05:11:00,
2013-06-30 01:16:00,75.4,68.1,29.82,SSW,208,0.0,2.0,78,0.00,,---,0.00,VWS V14.01,2013-06-30 05:16:00,
2013-06-30 01:20:00,75.3,68.0,29.82,SSW,208,0.0,2.0,78,0.00,,---,0.00,VWS V14.01,2013-06-30 05:20:00,
2013-06-30 01:21:00,75.3,68.0,29.82,South,191,0.0,2.0,78,0.00,,---,0.00,VWS V14.01,2013-06-30 05:21:00,
2013-06-30 01:26:00,75.3,68.0,29.82,SSW,205,0.0,2.0,78,0.00,,---,0.00,VWS V14.01,2013-06-30 05:26:00,
2013-06-30 01:30:00,75.3,68.0,29.82,South,191,0.0,2.0,78,0.00,,---,0.00,VWS V14.01,2013-06-30 05:30:00,
2013-06-30 01:31:00,75.3,68.0,29.81,SW,225,0.0,2.0,78,0.00,,---,0.00,VWS V14.01,2013-06-30 05:31:00,
2013-06-30 01:36:00,75.3,68.0,29.82,WSW,240,0.0,2.0,78,0.00,,---,0.00,VWS V14.01,2013-06-30 05:36:00,
2013-06-30 01:40:00,75.2,67.9,29.81,North,5,1.0,2.0,78,0.00,,---,0.00,VWS V14.01,2013-06-30 05:40:00,
2013-06-30 01:41:00,75.2,67.9,29.82,ENE,68,0.0,1.0,78,0.00,,---,0.00,VWS V14.01,2013-06-30 05:41:00,
2013-06-30 01:46:00,75.2,67.9,29.82,SW,223,1.0,2.0,78,0.00,,---,0.00,VWS V14.01,2013-06-30 05:46:00,
2013-06-30 01:50:00,75.2,67.9,29.81,South,173,0.0,2.0,78,0.00,,---,0.00,VWS V14.01,2013-06-30 05:50:00,
2013-06-30 01:51:00,75.2,67.9,29.81,ESE,122,0.0,1.0,78,0.00,,---,0.00,VWS V14.01,2013-06-30 05:51:00,
2013-06-30 01:56:00,75.2,67.9,29.82,West,279,0.0,2.0,78,0.00,,---,0.00,VWS V14.01,2013-06-30 05:56:00,
2013-06-30 02:00:00,75.2,67.9,29.82,West,280,0.0,2.0,78,0.00,,---,0.00,VWS V14.01,2013-06-30 06:00:00,
2013-06-30 02:01:00,75.1,67.8,29.82,West,278,0.0,1.0,78,0.00,,---,0.00,VWS V14.01,2013-06-30 06:01:00,
2013-06-30 02:07:00,75.1,67.8,29.81,East,101,0.0,2.0,78,0.00,,---,0.00,VWS V14.01,2013-06-30 06:07:00,
2013-06-30 02:10:00,75.1,67.8,29.81,NE,54,1.0,2.0,78,0.00,,---,0.00,VWS V14.01,2013-06-30 06:10:00,
2013-06-30 02:12:00,75.0,67.7,29.81,East,91,0.0,1.0,78,0.00,,---,0.00,VWS V14.01,2013-06-30 06:12:00,
2013-06-30 02:17:00,75.0,67.7,29.81,SSE,163,0.0,1.0,78,0.00,,---,0.00,VWS V14.01,2013-06-30 06:17:00,
2013-06-30 02:20:00,74.9,67.6,29.81,SW,214,0.0,1.0,78,0.00,,---,0.00,VWS V14.01,2013-06-30 06:20:00,
2013-06-30 02:22:00,74.9,67.6,29.81,West,262,0.0,1.0,78,0.00,,---,0.00,VWS V14.01,2013-06-30 06:22:00,
2013-06-30 02:27:00,74.9,67.6,29.81,SE,141,0.0,2.0,78,0.00,,---,0.00,VWS V14.01,2013-06-30 06:27:00,
2013-06-30 02:30:00,74.8,67.5,29.81,SSE,160,0.0,2.0,78,0.00,,---,0.00,VWS V14.01,2013-06-30 06:30:00,
2013-06-30 02:32:00,74.8,67.5,29.81,SW,215,0.0,1.0,78,0.00,,---,0.00,VWS V14.01,2013-06-30 06:32:00,
2013-06-30 02:37:00,74.8,67.5,29.81,East,81,0.0,2.0,78,0.00,,---,0.00,VWS V14.01,2013-06-30 06:37:00,
2013-06-30 02:40:00,74.8,67.5,29.81,East,80,0.0,2.0,78,0.00,,---,0.00,VWS V14.01,2013-06-30 06:40:00,
2013-06-30 02:42:00,74.8,67.5,29.80,NE,46,0.0,2.0,78,0.00,,---,0.00,VWS V14.01,2013-06-30 06:42:00,
2013-06-30 02:47:00,74.8,67.5,29.80,SE,141,0.0,2.0,78,0.00,,---,0.00,VWS V14.01,2013-06-30 06:47:00,
2013-06-30 02:50:00,74.8,67.5,29.80,East,82,0.0,2.0,78,0.00,,---,0.00,VWS V14.01,2013-06-30 06:50:00,
2013-06-30 02:52:00,74.8,67.5,29.80,ESE,108,0.0,1.0,78,0.00,,---,0.00,VWS V14.01,2013-06-30 06:52:00,
2013-06-30 02:57:00,74.7,67.4,29.80,East,85,0.0,1.0,78,0.00,,---,0.00,VWS V14.01,2013-06-30 06:57:00,
2013-06-30 03:00:00,74.7,67.4,29.80,SW,229,0.0,1.0,78,0.00,,---,0.00,VWS V14.01,2013-06-30 07:00:00,
2013-06-30 03:02:00,74.7,67.4,29.80,East,86,2.0,2.0,78,0.00,,---,0.00,VWS V14.01,2013-06-30 07:02:00,
2013-06-30 03:07:00,74.7,67.4,29.80,SSW,207,0.0,2.0,78,0.00,,---,0.00,VWS V14.01,2013-06-30 07:07:00,
2013-06-30 03:10:00,74.7,67.4,29.80,SSW,200,0.0,2.0,78,0.00,,---,0.00,VWS V14.01,2013-06-30 07:10:00,
2013-06-30 03:12:00,74.6,67.3,29.80,SSW,211,0.0,0.0,78,0.00,,---,0.00,VWS V14.01,2013-06-30 07:12:00,
2013-06-30 03:17:00,74.7,67.4,29.80,North,351,0.0,2.0,78,0.00,,---,0.00,VWS V14.01,2013-06-30 07:17:00,
2013-06-30 03:20:00,74.6,67.3,29.80,SSE,156,0.0,2.0,78,0.00,,---,0.00,VWS V14.01,2013-06-30 07:20:00,
2013-06-30 03:22:00,74.6,67.3,29.80,North,351,0.0,1.0,78,0.00,,---,0.00,VWS V14.01,2013-06-30 07:22:00,
2013-06-30 03:27:00,74.7,67.4,29.80,West,275,0.0,2.0,78,0.00,,---,0.00,VWS V14.01,2013-06-30 07:27:00,
2013-06-30 03:30:00,74.7,67.4,29.80,SSE,165,0.0,2.0,78,0.00,,---,0.00,VWS V14.01,2013-06-30 07:30:00,
2013-06-30 03:32:00,74.7,67.4,29.80,ENE,72,1.0,3.0,78,0.00,,---,0.00,VWS V14.01,2013-06-30 07:32:00,
2013-06-30 03:37:00,74.7,67.4,29.79,WSW,250,0.0,3.0,78,0.00,,---,0.00,VWS V14.01,2013-06-30 07:37:00,
2013-06-30 03:40:00,74.7,67.4,29.79,WSW,243,0.0,3.0,78,0.00,,---,0.00,VWS V14.01,2013-06-30 07:40:00,
2013-06-30 03:42:00,74.7,67.4,29.79,WSW,238,0.0,2.0,78,0.00,,---,0.00,VWS V14.01,2013-06-30 07:42:00,
2013-06-30 03:47:00,74.7,67.4,29.79,SW,231,0.0,2.0,78,0.00,,---,0.00,VWS V14.01,2013-06-30 07:47:00,
2013-06-30 03:50:00,74.7,67.4,29.79,East,99,0.0,2.0,78,0.00,,---,0.00,VWS V14.01,2013-06-30 07:50:00,
2013-06-30 03:52:00,74.6,67.3,29.79,NNE,22,0.0,1.0,78,0.00,,---,0.00,VWS V14.01,2013-06-30 07:52:00,
2013-06-30 03:57:00,74.6,67.3,29.79,ESE,102,0.0,1.0,78,0.00,,---,0.00,VWS V14.01,2013-06-30 07:57:00,
2013-06-30 04:00:00,74.6,67.3,29.79,ENE,74,1.0,1.0,78,0.00,,---,0.00,VWS V14.01,2013-06-30 08:00:00,
2013-06-30 04:02:00,74.6,67.3,29.79,ENE,60,1.0,2.0,78,0.00,,---,0.00,VWS V14.01,2013-06-30 08:02:00,
2013-06-30 04:07:00,74.6,67.3,29.79,NW,305,0.0,2.0,78,0.00,,---,0.00,VWS V14.01,2013-06-30 08:07:00,
2013-06-30 04:10:00,74.6,67.3,29.79,NW,305,0.0,2.0,78,0.00,,---,0.00,VWS V14.01,2013-06-30 08:10:00,
2013-06-30 04:12:00,74.6,67.3,29.79,East,92,0.0,2.0,78,0.00,,---,0.00,VWS V14.01,2013-06-30 08:12:00,
2013-06-30 04:17:00,74.6,67.3,29.79,SE,127,0.0,2.0,78,0.00,,---,0.00,VWS V14.01,2013-06-30 08:17:00,
2013-06-30 04:20:00,74.6,67.3,29.79,ESE,122,0.0,2.0,78,0.00,,---,0.00,VWS V14.01,2013-06-30 08:20:00,
2013-06-30 04:22:00,74.6,67.3,29.79,East,93,1.0,1.0,78,0.00,,---,0.00,VWS V14.01,2013-06-30 08:22:00,
2013-06-30 04:27:00,74.6,67.3,29.79,East,84,0.0,2.0,78,0.00,,---,0.00,VWS V14.01,2013-06-30 08:27:00,
2013-06-30 04:30:00,74.6,67.3,29.79,NW,306,0.0,2.0,78,0.00,,---,0.00,VWS V14.01,2013-06-30 08:30:00,
2013-06-30 04:32:00,74.5,67.2,29.79,NNE,29,0.0,0.0,78,0.00,,---,0.00,VWS V14.01,2013-06-30 08:32:00,
2013-06-30 04:37:00,74.5,67.2,29.79,South,186,0.0,1.0,78,0.00,,---,0.00,VWS V14.01,2013-06-30 08:37:00,
2013-06-30 04:40:00,74.4,67.1,29.79,SSE,155,0.0,1.0,78,0.00,,---,0.00,VWS V14.01,2013-06-30 08:40:00,
2013-06-30 04:42:00,74.4,67.1,29.79,SE,133,0.0,1.0,78,0.00,,---,0.00,VWS V14.01,2013-06-30 08:42:00,
2013-06-30 04:47:00,74.3,67.0,29.79,ENE,64,0.0,2.0,78,0.00,,---,0.00,VWS V14.01,2013-06-30 08:47:00,
2013-06-30 04:50:00,74.4,67.1,29.79,ENE,73,2.0,2.0,78,0.00,,---,0.00,VWS V14.01,2013-06-30 08:50:00,
2013-06-30 04:52:00,74.3,67.0,29.79,West,264,1.0,2.0,78,0.00,,---,0.00,VWS V14.01,2013-06-30 08:52:00,
2013-06-30 04:57:00,74.3,67.0,29.79,NNE,27,0.0,2.0,78,0.00,,---,0.00,VWS V14.01,2013-06-30 08:57:00,
2013-06-30 05:00:00,74.3,67.0,29.79,ESE,112,0.0,2.0,78,0.00,,---,0.00,VWS V14.01,2013-06-30 09:00:00,
2013-06-30 05:02:00,74.3,67.0,29.79,North,352,0.0,2.0,78,0.00,,---,0.00,VWS V14.01,2013-06-30 09:02:00,
2013-06-30 05:07:00,74.2,66.9,29.79,ENE,74,0.0,2.0,78,0.00,,---,0.00,VWS V14.01,2013-06-30 09:07:00,
2013-06-30 05:10:00,74.2,66.9,29.79,East,91,0.0,2.0,78,0.00,,---,0.00,VWS V14.01,2013-06-30 09:10:00,
2013-06-30 05:12:00,74.2,66.9,29.79,East,96,0.0,0.0,78,0.00,,---,0.00,VWS V14.01,2013-06-30 09:12:00,
2013-06-30 05:17:00,74.1,66.8,29.79,East,91,1.0,1.0,78,0.00,,---,0.00,VWS V14.01,2013-06-30 09:17:00,
2013-06-30 05:20:00,74.1,66.8,29.79,East,91,2.0,2.0,78,0.00,,---,0.00,VWS V14.01,2013-06-30 09:20:00,
2013-06-30 05:22:00,74.1,66.8,29.80,North,355,0.0,2.0,78,0.00,,---,0.00,VWS V14.01,2013-06-30 09:22:00,
2013-06-30 05:27:00,74.1,66.8,29.80,ESE,115,0.0,2.0,78,0.00,,---,0.00,VWS V14.01,2013-06-30 09:27:00,
2013-06-30 05:30:00,74.1,66.8,29.80,East,91,0.0,2.0,78,0.00,,---,0.00,VWS V14.01,2013-06-30 09:30:00,
2013-06-30 05:32:00,74.1,66.8,29.80,ENE,73,0.0,2.0,78,0.00,,---,0.00,VWS V14.01,2013-06-30 09:32:00,
2013-06-30 05:37:00,74.1,66.8,29.80,East,94,0.0,2.0,78,0.00,,---,0.00,VWS V14.01,2013-06-30 09:37:00,
2013-06-30 05:40:00,74.0,66.7,29.80,East,95,0.0,2.0,78,0.00,,---,0.00,VWS V14.01,2013-06-30 09:40:00,
2013-06-30 05:42:00,74.0,66.7,29.80,ESE,123,0.0,3.0,78,0.00,,---,0.00,VWS V14.01,2013-06-30 09:42:00,
2013-06-30 05:47:00,74.0,66.7,29.81,NE,56,1.0,3.0,78,0.00,,---,0.00,VWS V14.01,2013-06-30 09:47:00,
2013-06-30 05:50:00,74.0,67.1,29.81,ENE,69,0.0,3.0,79,0.00,,---,0.00,VWS V14.01,2013-06-30 09:50:00,
2013-06-30 05:52:00,74.0,67.1,29.81,ENE,58,0.0,1.0,79,0.00,,---,0.00,VWS V14.01,2013-06-30 09:52:00,
2013-06-30 05:57:00,74.0,67.1,29.81,West,277,0.0,1.0,79,0.00,,---,0.00,VWS V14.01,2013-06-30 09:57:00,
2013-06-30 06:00:00,73.9,67.0,29.81,West,277,0.0,1.0,79,0.00,,---,0.00,VWS V14.01,2013-06-30 10:00:00,
2013-06-30 06:02:00,73.9,67.0,29.81,ESE,120,0.0,1.0,79,0.00,,---,0.00,VWS V14.01,2013-06-30 10:02:00,
2013-06-30 06:07:00,73.9,66.6,29.81,NE,51,0.0,3.0,78,0.00,,---,0.00,VWS V14.01,2013-06-30 10:07:00,
2013-06-30 06:10:00,73.9,66.6,29.81,NNE,32,0.0,3.0,78,0.00,,---,0.00,VWS V14.01,2013-06-30 10:10:00,
2013-06-30 06:12:00,73.9,66.6,29.81,East,84,0.0,3.0,78,0.00,,---,0.00,VWS V14.01,2013-06-30 10:12:00,
2013-06-30 06:17:00,73.9,66.6,29.82,SSW,198,1.0,3.0,78,0.00,,---,0.00,VWS V14.01,2013-06-30 10:17:00,
2013-06-30 06:20:00,73.9,66.6,29.82,SSW,199,0.0,3.0,78,0.00,,---,0.00,VWS V14.01,2013-06-30 10:20:00,
2013-06-30 06:22:00,73.9,67.0,29.82,East,89,0.0,1.0,79,0.00,,---,0.00,VWS V14.01,2013-06-30 10:22:00,
2013-06-30 06:27:00,73.9,67.0,29.82,East,89,0.0,1.0,79,0.00,,---,0.00,VWS V14.01,2013-06-30 10:27:00,
2013-06-30 06:30:00,73.9,67.0,29.82,East,96,0.0,1.0,79,0.00,,---,0.00,VWS V14.01,2013-06-30 10:30:00,
2013-06-30 06:32:00,73.9,67.0,29.82,SE,126,0.0,0.0,79,0.00,,---,0.00,VWS V14.01,2013-06-30 10:32:00,
2013-06-30 06:37:00,73.9,66.6,29.82,SE,126,0.0,0.0,78,0.00,,---,0.00,VWS V14.01,2013-06-30 10:37:00,
2013-06-30 06:40:00,73.9,66.6,29.82,SE,125,0.0,0.0,78,0.00,,---,0.00,VWS V14.01,2013-06-30 10:40:00,
2013-06-30 06:42:00,73.9,66.6,29.82,SE,124,0.0,1.0,78,0.00,,---,0.00,VWS V14.01,2013-06-30 10:42:00,
2013-06-30 06:47:00,73.9,66.6,29.82,SE,124,0.0,1.0,78,0.00,,---,0.00,VWS V14.01,2013-06-30 10:47:00,
2013-06-30 06:50:00,73.8,66.5,29.82,SE,124,0.0,1.0,78,0.00,,---,0.00,VWS V14.01,2013-06-30 10:50:00,
2013-06-30 06:52:00,73.9,66.6,29.82,SE,124,0.0,1.0,78,0.00,,---,0.00,VWS V14.01,2013-06-30 10:52:00,
2013-06-30 06:57:00,73.9,66.6,29.82,SE,124,0.0,1.0,78,0.00,,---,0.00,VWS V14.01,2013-06-30 10:57:00,
2013-06-30 07:00:00,74.0,66.7,29.82,SE,124,0.0,1.0,78,0.00,,---,0.00,VWS V14.01,2013-06-30 11:00:00,
2013-06-30 07:02:00,74.2,66.9,29.82,SE,124,0.0,0.0,78,0.00,,---,0.00,VWS V14.01,2013-06-30 11:02:00,
2013-06-30 07:07:00,74.7,67.4,29.82,ESE,122,0.0,0.0,78,0.00,,---,0.00,VWS V14.01,2013-06-30 11:07:00,
2013-06-30 07:10:00,74.7,67.4,29.82,ESE,122,0.0,0.0,78,0.00,,---,0.00,VWS V14.01,2013-06-30 11:10:00,
2013-06-30 07:12:00,75.1,67.8,29.82,East,91,0.0,1.0,78,0.00,,---,0.00,VWS V14.01,2013-06-30 11:12:00,
2013-06-30 07:17:00,75.4,68.1,29.82,NNW,344,0.0,1.0,78,0.00,,---,0.00,VWS V14.01,2013-06-30 11:17:00,
2013-06-30 07:20:00,75.5,68.2,29.82,NNW,345,0.0,1.0,78,0.00,,---,0.00,VWS V14.01,2013-06-30 11:20:00,
2013-06-30 07:22:00,75.9,68.6,29.82,NE,36,0.0,1.0,78,0.00,,---,0.00,VWS V14.01,2013-06-30 11:22:00,
2013-06-30 07:27:00,76.4,69.0,29.82,ENE,64,1.0,1.0,78,0.00,,---,0.00,VWS V14.01,2013-06-30 11:27:00,
2013-06-30 07:30:00,76.5,69.1,29.82,NE,48,0.0,1.0,78,0.00,,---,0.00,VWS V14.01,2013-06-30 11:30:00,
2013-06-30 07:32:00,76.9,69.5,29.82,East,99,0.0,1.0,78,0.00,,---,0.00,VWS V14.01,2013-06-30 11:32:00,
2013-06-30 07:37:00,77.4,70.4,29.82,ENE,78,0.0,1.0,79,0.00,,---,0.00,VWS V14.01,2013-06-30 11:37:00,
2013-06-30 07:40:00,77.5,70.5,29.82,ENE,61,0.0,1.0,79,0.00,,---,0.00,VWS V14.01,2013-06-30 11:40:00,
2013-06-30 07:42:00,77.9,71.2,29.82,SSW,207,0.0,2.0,80,0.00,,---,0.00,VWS V14.01,2013-06-30 11:42:00,
2013-06-30 07:47:00,78.5,71.8,29.83,ESE,122,0.0,2.0,80,0.00,,---,0.00,VWS V14.01,2013-06-30 11:47:00,
2013-06-30 07:50:00,78.6,71.9,29.83,ESE,123,0.0,2.0,80,0.00,,---,0.00,VWS V14.01,2013-06-30 11:50:00,
2013-06-30 07:52:00,79.0,72.3,29.83,North,1,0.0,1.0,80,0.00,,---,0.00,VWS V14.01,2013-06-30 11:52:00,
2013-06-30 07:57:00,79.4,73.1,29.83,South,188,0.0,1.0,81,0.00,,---,0.00,VWS V14.01,2013-06-30 11:57:00,
2013-06-30 08:00:00,79.5,73.2,29.83,South,189,0.0,1.0,81,0.00,,---,0.00,VWS V14.01,2013-06-30 12:00:00,
2013-06-30 08:02:00,79.9,73.6,29.83,SE,141,0.0,0.0,81,0.00,,---,0.00,VWS V14.01,2013-06-30 12:02:00,
2013-06-30 08:07:00,80.4,73.7,29.83,East,89,0.0,1.0,80,0.00,,---,0.00,VWS V14.01,2013-06-30 12:07:00,
2013-06-30 08:10:00,80.5,73.8,29.83,East,89,0.0,1.0,80,0.00,,---,0.00,VWS V14.01,2013-06-30 12:10:00,
2013-06-30 08:12:00,80.8,74.1,29.83,WNW,301,0.0,3.0,80,0.00,,---,0.00,VWS V14.01,2013-06-30 12:12:00,
2013-06-30 08:17:00,81.0,74.2,29.83,West,260,1.0,3.0,80,0.00,,---,0.00,VWS V14.01,2013-06-30 12:17:00,
2013-06-30 08:20:00,81.0,74.2,29.83,SW,214,2.0,3.0,80,0.00,,---,0.00,VWS V14.01,2013-06-30 12:20:00,
2013-06-30 08:22:00,81.1,74.3,29.83,ESE,121,0.0,2.0,80,0.00,,---,0.00,VWS V14.01,2013-06-30 12:22:00,
2013-06-30 08:27:00,81.6,74.8,29.83,SSW,204,0.0,2.0,80,0.00,,---,0.00,VWS V14.01,2013-06-30 12:27:00,
2013-06-30 08:30:00,81.7,74.6,29.83,SSE,148,1.0,2.0,79,0.00,,---,0.00,VWS V14.01,2013-06-30 12:30:00,
2013-06-30 08:32:00,81.9,74.8,29.83,SW,225,0.0,2.0,79,0.00,,---,0.00,VWS V14.01,2013-06-30 12:32:00,
2013-06-30 08:37:00,82.1,74.9,29.84,WNW,300,0.0,2.0,79,0.00,,---,0.00,VWS V14.01,2013-06-30 12:37:00,
2013-06-30 08:40:00,82.2,75.0,29.84,West,276,1.0,2.0,79,0.00,,---,0.00,VWS V14.01,2013-06-30 12:40:00,
2013-06-30 08:42:00,82.3,75.1,29.84,ENE,78,1.0,2.0,79,0.00,,---,0.00,VWS V14.01,2013-06-30 12:42:00,
2013-06-30 08:47:00,82.7,75.2,29.84,NE,53,0.0,2.0,78,0.00,,---,0.00,VWS V14.01,2013-06-30 12:47:00,
2013-06-30 08:50:00,82.8,75.6,29.84,NE,49,0.0,2.0,79,0.00,,---,0.00,VWS V14.01,2013-06-30 12:50:00,
2013-06-30 08:52:00,83.2,75.6,29.84,South,176,0.0,3.0,78,0.00,,---,0.00,VWS V14.01,2013-06-30 12:52:00,
2013-06-30 08:57:00,84.1,76.5,29.84,South,181,1.0,3.0,78,0.00,,---,0.00,VWS V14.01,2013-06-30 12:57:00,
2013-06-30 09:00:00,84.1,76.1,29.84,SW,231,0.0,3.0,77,0.00,,---,0.00,VWS V14.01,2013-06-30 13:00:00,
2013-06-30 09:02:00,83.9,75.9,29.83,West,280,1.0,2.0,77,0.00,,---,0.00,VWS V14.01,2013-06-30 13:02:00,
2013-06-30 09:08:00,83.8,76.2,29.84,WNW,284,0.0,3.0,78,0.00,,---,0.00,VWS V14.01,2013-06-30 13:08:00,
2013-06-30 09:10:00,83.9,76.3,29.84,WNW,298,1.0,3.0,78,0.00,,---,0.00,VWS V14.01,2013-06-30 13:10:00,
2013-06-30 09:13:00,84.2,76.2,29.84,SW,229,3.0,4.0,77,0.00,,---,0.00,VWS V14.01,2013-06-30 13:13:00,
2013-06-30 09:18:00,84.6,76.6,29.84,NW,304,0.0,4.0,77,0.00,,---,0.00,VWS V14.01,2013-06-30 13:18:00,
2013-06-30 09:20:00,84.7,76.3,29.84,WNW,292,0.0,4.0,76,0.00,,---,0.00,VWS V14.01,2013-06-30 13:20:00,
2013-06-30 09:23:00,85.1,76.7,29.83,North,6,1.0,4.0,76,0.00,,---,0.00,VWS V14.01,2013-06-30 13:23:00,
2013-06-30 09:28:00,85.3,76.5,29.83,East,85,1.0,4.0,75,0.00,,---,0.00,VWS V14.01,2013-06-30 13:28:00,
2013-06-30 09:30:00,85.2,76.4,29.83,ENE,73,0.0,4.0,75,0.00,,---,0.00,VWS V14.01,2013-06-30 13:30:00,
2013-06-30 09:33:00,85.6,77.2,29.83,SSE,148,0.0,3.0,76,0.00,,---,0.00,VWS V14.01,2013-06-30 13:33:00,
2013-06-30 09:38:00,86.0,77.2,29.83,NW,318,1.0,4.0,75,0.00,,---,0.00,VWS V14.01,2013-06-30 13:38:00,
2013-06-30 09:40:00,86.0,77.2,29.83,ESE,113,1.0,4.0,75,0.00,,---,0.00,VWS V14.01,2013-06-30 13:40:00,
2013-06-30 09:43:00,85.9,77.1,29.83,NW,316,0.0,4.0,75,0.00,,---,0.00,VWS V14.01,2013-06-30 13:43:00,
2013-06-30 09:48:00,86.2,77.3,29.83,West,270,0.0,4.0,75,0.00,,---,0.00,VWS V14.01,2013-06-30 13:48:00,
2013-06-30 09:50:00,86.3,77.4,29.83,SW,228,0.0,7.0,75,0.00,,---,0.00,VWS V14.01,2013-06-30 13:50:00,
2013-06-30 09:53:00,86.4,76.7,29.83,NNW,328,3.0,7.0,73,0.00,,---,0.00,VWS V14.01,2013-06-30 13:53:00,
2013-06-30 09:58:00,86.4,77.1,29.83,SW,228,1.0,7.0,74,0.00,,---,0.00,VWS V14.01,2013-06-30 13:58:00,
2013-06-30 10:00:00,86.5,77.2,29.83,SW,228,0.0,7.0,74,0.00,,---,0.00,VWS V14.01,2013-06-30 14:00:00,
2013-06-30 10:03:00,87.0,77.3,29.83,WSW,243,1.0,3.0,73,0.00,,---,0.00,VWS V14.01,2013-06-30 14:03:00,
2013-06-30 10:08:00,86.6,76.5,29.83,WNW,285,1.0,7.0,72,0.00,,---,0.00,VWS V14.01,2013-06-30 14:08:00,
2013-06-30 10:10:00,86.6,76.9,29.83,West,280,1.0,7.0,73,0.00,,---,0.00,VWS V14.01,2013-06-30 14:10:00,
2013-06-30 10:13:00,86.2,76.5,29.83,WNW,295,1.0,6.0,73,0.00,,---,0.00,VWS V14.01,2013-06-30 14:13:00,
2013-06-30 10:18:00,86.2,76.9,29.82,East,98,0.0,6.0,74,0.00,,---,0.00,VWS V14.01,2013-06-30 14:18:00,
2013-06-30 10:20:00,86.2,76.9,29.82,East,98,0.0,6.0,74,0.00,,---,0.00,VWS V14.01,2013-06-30 14:20:00,
2013-06-30 10:23:00,87.0,77.7,29.83,West,259,1.0,2.0,74,0.00,,---,0.00,VWS V14.01,2013-06-30 14:23:00,
2013-06-30 10:28:00,87.4,76.4,29.82,WNW,294,0.0,5.0,70,0.00,,---,0.00,VWS V14.01,2013-06-30 14:28:00,
2013-06-30 10:30:00,87.3,76.8,29.82,West,267,1.0,5.0,71,0.00,,---,0.00,VWS V14.01,2013-06-30 14:30:00,
2013-06-30 10:33:00,87.2,77.1,29.83,WNW,290,1.0,3.0,72,0.00,,---,0.00,VWS V14.01,2013-06-30 14:33:00,
2013-06-30 10:38:00,87.5,77.4,29.83,West,270,1.0,5.0,72,0.00,,---,0.00,VWS V14.01,2013-06-30 14:38:00,
2013-06-30 10:40:00,87.5,77.4,29.83,WSW,245,2.0,5.0,72,0.00,,---,0.00,VWS V14.01,2013-06-30 14:40:00,
2013-06-30 10:43:00,87.6,77.0,29.83,East,79,1.0,4.0,71,0.00,,---,0.00,VWS V14.01,2013-06-30 14:43:00,
2013-06-30 10:48:00,88.2,77.2,29.82,West,259,2.0,5.0,70,0.00,,---,0.00,VWS V14.01,2013-06-30 14:48:00,
2013-06-30 10:50:00,88.3,77.3,29.82,NNW,335,1.0,5.0,70,0.00,,---,0.00,VWS V14.01,2013-06-30 14:50:00,
2013-06-30 10:53:00,89.0,77.1,29.82,NE,43,0.0,6.0,68,0.00,,---,0.00,VWS V14.01,2013-06-30 14:53:00,
2013-06-30 10:58:00,89.5,77.1,29.82,WNW,284,1.0,6.0,67,0.00,,---,0.00,VWS V14.01,2013-06-30 14:58:00,
2013-06-30 11:00:00,89.5,77.1,29.82,East,99,3.0,6.0,67,0.00,,---,0.00,VWS V14.01,2013-06-30 15:00:00,
2013-06-30 11:03:00,89.7,77.3,29.81,WNW,291,1.0,5.0,67,0.00,,---,0.00,VWS V14.01,2013-06-30 15:03:00,
2013-06-30 11:08:00,90.1,76.8,29.82,West,267,1.0,5.0,65,0.00,,---,0.00,VWS V14.01,2013-06-30 15:08:00,
2013-06-30 11:10:00,90.1,76.8,29.82,NNW,336,1.0,5.0,65,0.00,,---,0.00,VWS V14.01,2013-06-30 15:10:00,
2013-06-30 11:13:00,90.4,77.0,29.82,West,266,3.0,3.0,65,0.00,,---,0.00,VWS V14.01,2013-06-30 15:13:00,
2013-06-30 11:18:00,90.3,77.4,29.82,NW,314,1.0,4.0,66,0.00,,---,0.00,VWS V14.01,2013-06-30 15:18:00,
2013-06-30 11:20:00,90.3,76.5,29.82,NNW,342,1.0,4.0,64,0.00,,---,0.00,VWS V14.01,2013-06-30 15:20:00,
2013-06-30 11:23:00,90.9,78.0,29.81,West,278,1.0,2.0,66,0.00,,---,0.00,VWS V14.01,2013-06-30 15:23:00,
2013-06-30 11:28:00,91.6,76.7,29.82,East,92,4.0,7.0,62,0.00,,---,0.00,VWS V14.01,2013-06-30 15:28:00,
2013-06-30 11:30:00,91.5,76.7,29.82,WNW,288,2.0,7.0,62,0.00,,---,0.00,VWS V14.01,2013-06-30 15:30:00,
2013-06-30 11:33:00,91.3,76.9,29.83,ESE,103,0.0,5.0,63,0.00,,---,0.00,VWS V14.01,2013-06-30 15:33:00,
2013-06-30 11:38:00,91.6,77.2,29.82,SW,215,1.0,5.0,63,0.00,,---,0.00,VWS V14.01,2013-06-30 15:38:00,
2013-06-30 11:40:00,91.7,77.3,29.82,ENE,60,2.0,5.0,63,0.00,,---,0.00,VWS V14.01,2013-06-30 15:40:00,
2013-06-30 11:43:00,91.2,76.4,29.82,West,281,5.0,10.0,62,0.00,,---,0.00,VWS V14.01,2013-06-30 15:43:00,
2013-06-30 11:48:00,87.8,72.7,29.83,WSW,240,6.0,10.0,61,0.00,,---,0.00,VWS V14.01,2013-06-30 15:48:00,
2013-06-30 11:50:00,87.8,72.7,29.83,WNW,283,4.0,10.0,61,0.00,,---,0.00,VWS V14.01,2013-06-30 15:50:00,
2013-06-30 11:53:00,83.9,72.2,29.84,West,274,4.0,15.0,68,0.00,,---,0.00,VWS V14.01,2013-06-30 15:53:00,
2013-06-30 11:58:00,81.1,71.2,29.85,SW,236,4.0,15.0,72,0.00,,---,0.00,VWS V14.01,2013-06-30 15:58:00,
2013-06-30 12:00:00,81.1,71.2,29.85,SW,232,4.0,15.0,72,0.00,,---,0.00,VWS V14.01,2013-06-30 16:00:00,
2013-06-30 12:03:00,78.4,71.0,29.85,WNW,290,1.0,10.0,78,0.09,,---,0.09,VWS V14.01,2013-06-30 16:03:00,
2013-06-30 12:08:00,76.4,69.8,29.85,West,262,1.0,10.0,80,0.14,,---,0.14,VWS V14.01,2013-06-30 16:08:00,
2013-06-30 12:10:00,76.4,69.8,29.85,West,262,1.0,10.0,80,0.14,,---,0.14,VWS V14.01,2013-06-30 16:10:00,
2013-06-30 12:13:00,75.4,68.8,29.85,SW,232,0.0,3.0,80,0.15,,---,0.15,VWS V14.01,2013-06-30 16:13:00,
2013-06-30 12:18:00,75.0,68.4,29.84,West,269,0.0,3.0,80,0.15,,---,0.15,VWS V14.01,2013-06-30 16:18:00,
2013-06-30 12:20:00,75.0,68.4,29.84,West,269,0.0,3.0,80,0.15,,---,0.15,VWS V14.01,2013-06-30 16:20:00,
2013-06-30 12:23:00,74.7,68.1,29.84,SW,236,0.0,2.0,80,0.15,,---,0.15,VWS V14.01,2013-06-30 16:23:00,
2013-06-30 12:28:00,74.6,68.0,29.85,East,101,1.0,2.0,80,0.15,,---,0.15,VWS V14.01,2013-06-30 16:28:00,
2013-06-30 12:30:00,74.6,68.0,29.85,East,101,1.0,2.0,80,0.15,,---,0.15,VWS V14.01,2013-06-30 16:30:00,
2013-06-30 12:33:00,74.8,67.9,29.84,East,100,0.0,1.0,79,0.15,,---,0.15,VWS V14.01,2013-06-30 16:33:00,
2013-06-30 12:38:00,75.0,68.1,29.84,East,89,0.0,1.0,79,0.15,,---,0.15,VWS V14.01,2013-06-30 16:38:00,
2013-06-30 12:40:00,75.0,68.1,29.84,East,89,0.0,1.0,79,0.15,,---,0.15,VWS V14.01,2013-06-30 16:40:00,
2013-06-30 12:43:00,75.1,68.2,29.84,East,89,0.0,0.0,79,0.15,,---,0.15,VWS V14.01,2013-06-30 16:43:00,
2013-06-30 12:48:00,75.1,68.5,29.84,East,89,0.0,0.0,80,0.15,,---,0.15,VWS V14.01,2013-06-30 16:48:00,
2013-06-30 12:50:00,75.1,68.5,29.84,East,89,0.0,0.0,80,0.15,,---,0.15,VWS V14.01,2013-06-30 16:50:00,
2013-06-30 12:53:00,75.4,68.4,29.84,East,89,0.0,0.0,79,0.15,,---,0.15,VWS V14.01,2013-06-30 16:53:00,
2013-06-30 12:58:00,75.7,69.1,29.84,ESE,112,0.0,0.0,80,0.15,,---,0.15,VWS V14.01,2013-06-30 16:58:00,
2013-06-30 13:00:00,75.7,69.1,29.84,ESE,110,0.0,0.0,80,0.15,,---,0.15,VWS V14.01,2013-06-30 17:00:00,
2013-06-30 13:03:00,76.2,69.6,29.84,ESE,108,0.0,0.0,80,0.15,,---,0.15,VWS V14.01,2013-06-30 17:03:00,
2013-06-30 13:08:00,77.0,70.0,29.84,ESE,107,0.0,0.0,79,0.01,,---,0.15,VWS V14.01,2013-06-30 17:08:00,
2013-06-30 13:10:00,77.0,70.0,29.84,ESE,108,0.0,0.0,79,0.15,,---,0.15,VWS V14.01,2013-06-30 17:10:00,
2013-06-30 13:13:00,78.1,71.1,29.83,WSW,253,0.0,0.0,79,0.01,,---,0.15,VWS V14.01,2013-06-30 17:13:00,
2013-06-30 13:18:00,78.8,72.5,29.83,SW,236,0.0,0.0,81,0.00,,---,0.15,VWS V14.01,2013-06-30 17:18:00,
2013-06-30 13:20:00,78.8,72.5,29.83,SW,236,0.0,2.0,81,0.01,,---,0.15,VWS V14.01,2013-06-30 17:20:00,
2013-06-30 13:23:00,79.4,73.1,29.83,SW,224,0.0,3.0,81,0.01,,---,0.16,VWS V14.01,2013-06-30 17:23:00,
2013-06-30 13:28:00,79.3,72.6,29.82,SSW,208,1.0,2.0,80,0.02,,---,0.17,VWS V14.01,2013-06-30 17:28:00,
2013-06-30 13:30:00,79.3,72.6,29.82,SW,215,1.0,4.0,80,0.02,,---,0.17,VWS V14.01,2013-06-30 17:30:00,
2013-06-30 13:33:00,79.2,72.9,29.82,WSW,246,0.0,2.0,81,0.02,,---,0.17,VWS V14.01,2013-06-30 17:33:00,
2013-06-30 13:38:00,79.2,72.5,29.82,SSW,208,0.0,0.0,80,0.02,,---,0.17,VWS V14.01,2013-06-30 17:38:00,
2013-06-30 13:40:00,79.2,72.5,29.82,SSW,208,0.0,2.0,80,0.02,,---,0.17,VWS V14.01,2013-06-30 17:40:00,
2013-06-30 13:43:00,79.2,72.5,29.82,NE,40,0.0,2.0,80,0.02,,---,0.17,VWS V14.01,2013-06-30 17:43:00,
2013-06-30 13:49:00,79.4,72.7,29.82,WNW,293,1.0,2.0,80,0.02,,---,0.17,VWS V14.01,2013-06-30 17:49:00,
2013-06-30 13:50:00,79.4,72.7,29.82,WNW,287,2.0,4.0,80,0.02,,---,0.17,VWS V14.01,2013-06-30 17:50:00,
2013-06-30 13:53:00,79.5,72.8,29.83,West,270,0.0,2.0,80,0.02,,---,0.17,VWS V14.01,2013-06-30 17:53:00,
2013-06-30 13:59:00,79.6,72.9,29.83,West,267,0.0,1.0,80,0.02,,---,0.17,VWS V14.01,2013-06-30 17:59:00,
2013-06-30 14:00:00,79.6,72.9,29.83,West,269,1.0,2.0,80,0.02,,---,0.17,VWS V14.01,2013-06-30 18:00:00,
2013-06-30 14:04:00,79.6,73.3,29.83,WNW,293,0.0,3.0,81,0.02,,---,0.17,VWS V14.01,2013-06-30 18:04:00,
2013-06-30 14:09:00,79.5,73.2,29.83,WSW,246,1.0,2.0,81,0.02,,---,0.17,VWS V14.01,2013-06-30 18:09:00,
2013-06-30 14:10:00,79.5,73.2,29.83,WSW,253,2.0,4.0,81,0.02,,---,0.17,VWS V14.01,2013-06-30 18:10:00,
2013-06-30 14:14:00,79.6,72.9,29.83,ESE,120,0.0,4.0,80,0.02,,---,0.17,VWS V14.01,2013-06-30 18:14:00,
2013-06-30 14:19:00,79.8,73.1,29.82,SE,135,1.0,2.0,80,0.02,,---,0.17,VWS V14.01,2013-06-30 18:19:00,
2013-06-30 14:20:00,79.8,73.1,29.82,WSW,255,0.0,4.0,80,0.02,,---,0.17,VWS V14.01,2013-06-30 18:20:00,
2013-06-30 14:24:00,80.4,73.7,29.82,SSW,205,0.0,3.0,80,0.02,,---,0.17,VWS V14.01,2013-06-30 18:24:00,
2013-06-30 14:29:00,81.4,74.6,29.82,WNW,283,0.0,1.0,80,0.00,,---,0.17,VWS V14.01,2013-06-30 18:29:00,
2013-06-30 14:30:00,81.4,74.6,29.82,West,273,1.0,3.0,80,0.02,,---,0.17,VWS V14.01,2013-06-30 18:30:00,
2013-06-30 14:34:00,82.6,75.8,29.82,WNW,284,0.0,3.0,80,0.00,,---,0.17,VWS V14.01,2013-06-30 18:34:00,
2013-06-30 14:39:00,83.8,76.2,29.82,WNW,301,0.0,2.0,78,0.00,,---,0.17,VWS V14.01,2013-06-30 18:39:00,
2013-06-30 14:40:00,83.7,76.1,29.82,West,278,0.0,3.0,78,0.00,,---,0.17,VWS V14.01,2013-06-30 18:40:00,
2013-06-30 14:44:00,85.1,76.7,29.81,WNW,302,1.0,4.0,76,0.00,,---,0.17,VWS V14.01,2013-06-30 18:44:00,
2013-06-30 14:49:00,86.1,77.7,29.82,SW,222,0.0,0.0,76,0.00,,---,0.17,VWS V14.01,2013-06-30 18:49:00,
2013-06-30 14:50:00,86.0,77.2,29.81,SW,224,0.0,4.0,75,0.00,,---,0.17,VWS V14.01,2013-06-30 18:50:00,
2013-06-30 14:54:00,86.8,77.1,29.82,NW,314,1.0,3.0,73,0.00,,---,0.17,VWS V14.01,2013-06-30 18:54:00,
2013-06-30 14:59:00,86.4,76.7,29.82,West,274,1.0,5.0,73,0.00,,---,0.17,VWS V14.01,2013-06-30 18:59:00,
2013-06-30 15:00:00,86.5,76.8,29.82,WNW,290,4.0,4.0,73,0.00,,---,0.17,VWS V14.01,2013-06-30 19:00:00,
2013-06-30 15:04:00,85.7,76.5,29.82,SSW,205,1.0,5.0,74,0.00,,---,0.17,VWS V14.01,2013-06-30 19:04:00,
2013-06-30 15:09:00,84.9,76.1,29.82,West,271,1.0,2.0,75,0.00,,---,0.17,VWS V14.01,2013-06-30 19:09:00,
2013-06-30 15:10:00,85.0,76.2,29.82,WNW,299,2.0,5.0,75,0.00,,---,0.17,VWS V14.01,2013-06-30 19:10:00,
2013-06-30 15:14:00,84.2,75.8,29.82,WSW,257,1.0,2.0,76,0.00,,---,0.17,VWS V14.01,2013-06-30 19:14:00,
2013-06-30 15:19:00,83.6,75.2,29.81,West,276,0.0,1.0,76,0.00,,---,0.17,VWS V14.01,2013-06-30 19:19:00,
2013-06-30 15:20:00,83.7,75.3,29.81,WSW,243,1.0,3.0,76,0.00,,---,0.17,VWS V14.01,2013-06-30 19:20:00,
2013-06-30 15:24:00,83.0,75.4,29.81,West,266,0.0,3.0,78,0.00,,---,0.17,VWS V14.01,2013-06-30 19:24:00,
2013-06-30 15:29:00,82.3,74.8,29.82,West,259,0.0,1.0,78,0.00,,---,0.17,VWS V14.01,2013-06-30 19:29:00,
2013-06-30 15:30:00,82.3,74.8,29.81,West,263,1.0,3.0,78,0.00,,---,0.17,VWS V14.01,2013-06-30 19:30:00,
2013-06-30 15:34:00,81.7,74.6,29.82,WSW,255,0.0,3.0,79,0.00,,---,0.17,VWS V14.01,2013-06-30 19:34:00,
2013-06-30 15:39:00,81.3,74.2,29.82,West,272,3.0,4.0,79,0.00,,---,0.17,VWS V14.01,2013-06-30 19:39:00,
2013-06-30 15:40:00,81.4,74.6,29.82,West,281,2.0,3.0,80,0.00,,---,0.17,VWS V14.01,2013-06-30 19:40:00,
2013-06-30 15:44:00,80.8,74.1,29.83,WSW,242,0.0,4.0,80,0.00,,---,0.17,VWS V14.01,2013-06-30 19:44:00,
2013-06-30 15:49:00,80.5,73.8,29.83,West,271,1.0,1.0,80,0.00,,---,0.17,VWS V14.01,2013-06-30 19:49:00,
2013-06-30 15:50:00,80.5,73.8,29.83,West,263,0.0,4.0,80,0.00,,---,0.17,VWS V14.01,2013-06-30 19:50:00,
2013-06-30 15:54:00,80.5,73.8,29.83,West,281,0.0,1.0,80,0.00,,---,0.17,VWS V14.01,2013-06-30 19:54:00,
2013-06-30 15:59:00,80.7,74.0,29.82,West,275,0.0,0.0,80,0.00,,---,0.17,VWS V14.01,2013-06-30 19:59:00,
2013-06-30 16:00:00,80.6,73.9,29.82,West,277,0.0,2.0,80,0.00,,---,0.17,VWS V14.01,2013-06-30 20:00:00,
2013-06-30 16:04:00,81.2,74.4,29.82,West,260,1.0,1.0,80,0.00,,---,0.17,VWS V14.01,2013-06-30 20:04:00,
2013-06-30 16:09:00,82.0,75.2,29.83,North,1,0.0,1.0,80,0.00,,---,0.17,VWS V14.01,2013-06-30 20:09:00,
2013-06-30 16:10:00,81.8,75.0,29.83,North,1,0.0,2.0,80,0.00,,---,0.17,VWS V14.01,2013-06-30 20:10:00,
2013-06-30 16:14:00,82.9,76.1,29.82,NNW,340,0.0,2.0,80,0.00,,---,0.17,VWS V14.01,2013-06-30 20:14:00,
2013-06-30 16:19:00,83.3,74.9,29.83,West,269,0.0,2.0,76,0.00,,---,0.17,VWS V14.01,2013-06-30 20:19:00,
2013-06-30 16:20:00,83.3,75.7,29.82,ENE,75,2.0,4.0,78,0.00,,---,0.17,VWS V14.01,2013-06-30 20:20:00,
2013-06-30 16:24:00,83.2,74.8,29.83,West,273,0.0,2.0,76,0.00,,---,0.17,VWS V14.01,2013-06-30 20:24:00,
2013-06-30 16:29:00,83.0,74.7,29.82,ESE,102,0.0,1.0,76,0.00,,---,0.17,VWS V14.01,2013-06-30 20:29:00,
2013-06-30 16:30:00,83.1,74.8,29.82,East,84,1.0,3.0,76,0.00,,---,0.17,VWS V14.01,2013-06-30 20:30:00,
2013-06-30 16:34:00,82.7,74.8,29.82,East,86,1.0,4.0,77,0.00,,---,0.17,VWS V14.01,2013-06-30 20:34:00,
2013-06-30 16:39:00,82.3,74.4,29.82,East,79,0.0,1.0,77,0.00,,---,0.17,VWS V14.01,2013-06-30 20:39:00,
2013-06-30 16:40:00,82.3,74.4,29.82,East,79,1.0,4.0,77,0.00,,---,0.17,VWS V14.01,2013-06-30 20:40:00,
2013-06-30 16:44:00,81.9,74.0,29.82,WSW,240,0.0,1.0,77,0.00,,---,0.17,VWS V14.01,2013-06-30 20:44:00,
2013-06-30 16:49:00,81.7,74.2,29.82,South,183,0.0,0.0,78,0.00,,---,0.17,VWS V14.01,2013-06-30 20:49:00,
2013-06-30 16:50:00,81.7,74.2,29.82,South,181,0.0,1.0,78,0.00,,---,0.17,VWS V14.01,2013-06-30 20:50:00,
2013-06-30 16:54:00,81.3,74.2,29.82,East,99,0.0,3.0,79,0.00,,---,0.17,VWS V14.01,2013-06-30 20:54:00,
2013-06-30 16:59:00,81.0,74.2,29.83,ESE,120,0.0,2.0,80,0.00,,---,0.17,VWS V14.01,2013-06-30 20:59:00,
2013-06-30 17:00:00,81.1,74.3,29.83,East,89,1.0,3.0,80,0.00,,---,0.17,VWS V14.01,2013-06-30 21:00:00,
2013-06-30 17:04:00,80.5,73.8,29.83,East,79,1.0,4.0,80,0.01,,---,0.18,VWS V14.01,2013-06-30 21:04:00,
2013-06-30 17:09:00,79.8,73.1,29.83,NW,319,1.0,1.0,80,0.01,,---,0.18,VWS V14.01,2013-06-30 21:09:00,
2013-06-30 17:10:00,79.9,73.2,29.83,West,280,0.0,4.0,80,0.01,,---,0.18,VWS V14.01,2013-06-30 21:10:00,
2013-06-30 17:14:00,79.2,72.9,29.83,WSW,255,0.0,1.0,81,0.01,,---,0.18,VWS V14.01,2013-06-30 21:14:00,
2013-06-30 17:19:00,78.7,72.4,29.83,ENE,63,1.0,1.0,81,0.01,,---,0.18,VWS V14.01,2013-06-30 21:19:00,
2013-06-30 17:20:00,78.8,72.5,29.83,NE,56,0.0,2.0,81,0.01,,---,0.18,VWS V14.01,2013-06-30 21:20:00,
2013-06-30 17:24:00,78.4,71.7,29.83,NE,34,0.0,3.0,80,0.02,,---,0.19,VWS V14.01,2013-06-30 21:24:00,
2013-06-30 17:29:00,78.1,71.4,29.83,ENE,78,2.0,2.0,80,0.02,,---,0.19,VWS V14.01,2013-06-30 21:29:00,
2013-06-30 17:30:00,78.1,71.4,29.83,ESE,110,1.0,3.0,80,0.02,,---,0.19,VWS V14.01,2013-06-30 21:30:00,
2013-06-30 17:34:00,77.8,71.1,29.83,SE,142,0.0,3.0,80,0.02,,---,0.19,VWS V14.01,2013-06-30 21:34:00,
2013-06-30 17:39:00,77.6,70.9,29.83,ESE,118,2.0,5.0,80,0.02,,---,0.19,VWS V14.01,2013-06-30 21:39:00,
2013-06-30 17:40:00,77.7,71.0,29.83,East,101,1.0,3.0,80,0.02,,---,0.19,VWS V14.01,2013-06-30 21:40:00,
2013-06-30 17:44:00,77.1,70.5,29.83,North,1,1.0,5.0,80,0.02,,---,0.19,VWS V14.01,2013-06-30 21:44:00,
2013-06-30 17:49:00,76.3,70.1,29.83,ENE,75,1.0,4.0,81,0.02,,---,0.19,VWS V14.01,2013-06-30 21:49:00,
2013-06-30 17:50:00,76.5,70.2,29.83,ESE,104,1.0,5.0,81,0.02,,---,0.19,VWS V14.01,2013-06-30 21:50:00,
2013-06-30 17:54:00,75.5,69.3,29.84,ESE,113,0.0,4.0,81,0.02,,---,0.19,VWS V14.01,2013-06-30 21:54:00,
2013-06-30 17:59:00,74.9,68.7,29.83,SW,224,0.0,3.0,81,0.02,,---,0.19,VWS V14.01,2013-06-30 21:59:00,
2013-06-30 18:00:00,75.0,68.8,29.83,ENE,68,0.0,4.0,81,0.02,,---,0.19,VWS V14.01,2013-06-30 22:00:00,
2013-06-30 18:04:00,74.6,68.4,29.84,SW,226,1.0,3.0,81,0.02,,---,0.19,VWS V14.01,2013-06-30 22:04:00,
2013-06-30 18:10:00,74.4,68.2,29.83,NNW,338,0.0,1.0,81,0.02,,---,0.20,VWS V14.01,2013-06-30 22:10:00,
2013-06-30 18:15:00,74.2,68.0,29.83,NW,305,0.0,2.0,81,0.02,,---,0.20,VWS V14.01,2013-06-30 22:15:00,
2013-06-30 18:20:00,74.1,67.9,29.83,East,96,0.0,2.0,81,0.02,,---,0.20,VWS V14.01,2013-06-30 22:20:00,
2013-06-30 18:25:00,74.2,68.0,29.82,East,98,0.0,2.0,81,0.03,,---,0.21,VWS V14.01,2013-06-30 22:25:00,
2013-06-30 18:30:00,74.3,67.7,29.82,East,80,0.0,1.0,80,0.02,,---,0.21,VWS V14.01,2013-06-30 22:30:00,
2013-06-30 18:35:00,74.4,67.8,29.81,SSW,194,0.0,2.0,80,0.03,,---,0.22,VWS V14.01,2013-06-30 22:35:00,
2013-06-30 18:40:00,74.6,67.7,29.81,East,88,0.0,0.0,79,0.03,,---,0.22,VWS V14.01,2013-06-30 22:40:00,
2013-06-30 18:45:00,74.7,67.8,29.81,ENE,70,0.0,2.0,79,0.03,,---,0.22,VWS V14.01,2013-06-30 22:45:00,
2013-06-30 18:50:00,74.8,67.9,29.81,East,86,0.0,1.0,79,0.04,,---,0.23,VWS V14.01,2013-06-30 22:50:00,
2013-06-30 18:55:00,74.9,67.9,29.81,NE,46,0.0,3.0,79,0.04,,---,0.23,VWS V14.01,2013-06-30 22:55:00,
2013-06-30 19:00:00,75.0,68.1,29.80,East,96,1.0,1.0,79,0.04,,---,0.23,VWS V14.01,2013-06-30 23:00:00,
2013-06-30 19:05:00,75.1,68.2,29.80,East,85,0.0,2.0,79,0.04,,---,0.23,VWS V14.01,2013-06-30 23:05:00,
2013-06-30 19:10:00,75.3,68.3,29.80,East,91,0.0,1.0,79,0.04,,---,0.23,VWS V14.01,2013-06-30 23:10:00,
2013-06-30 19:15:00,75.4,68.4,29.80,ENE,75,0.0,1.0,79,0.04,,---,0.23,VWS V14.01,2013-06-30 23:15:00,
2013-06-30 19:20:00,75.4,68.4,29.80,ESE,106,0.0,1.0,79,0.03,,---,0.23,VWS V14.01,2013-06-30 23:20:00,
2013-06-30 19:25:00,75.4,68.4,29.81,NNW,342,0.0,1.0,79,0.03,,---,0.23,VWS V14.01,2013-06-30 23:25:00,
2013-06-30 19:30:00,75.4,68.4,29.81,East,98,0.0,0.0,79,0.02,,---,0.23,VWS V14.01,2013-06-30 23:30:00,
2013-06-30 19:35:00,75.4,68.4,29.81,WNW,283,1.0,1.0,79,0.02,,---,0.23,VWS V14.01,2013-06-30 23:35:00,
2013-06-30 19:40:00,75.4,68.4,29.82,ENE,78,0.0,1.0,79,0.01,,---,0.23,VWS V14.01,2013-06-30 23:40:00,
2013-06-30 19:45:00,75.4,68.4,29.82,ENE,57,0.0,3.0,79,0.01,,---,0.23,VWS V14.01,2013-06-30 23:45:00,
2013-06-30 19:50:00,75.4,68.4,29.82,ENE,72,0.0,0.0,79,0.00,,---,0.23,VWS V14.01,2013-06-30 23:50:00,
2013-06-30 19:55:00,75.5,68.5,29.82,ENE,74,1.0,3.0,79,0.00,,---,0.23,VWS V14.01,2013-06-30 23:55:00,
2013-06-30 20:00:00,75.5,68.5,29.82,East,82,0.0,0.0,79,0.00,,---,0.23,VWS V14.01,2013-07-01 00:00:00,
2013-06-30 20:05:00,75.5,68.5,29.82,ENE,77,0.0,3.0,79,0.00,,---,0.23,VWS V14.01,2013-07-01 00:05:00,
2013-06-30 20:10:00,75.5,68.5,29.82,East,79,1.0,1.0,79,0.00,,---,0.23,VWS V14.01,2013-07-01 00:10:00,
2013-06-30 20:15:00,75.4,68.4,29.82,ENE,77,0.0,4.0,79,0.00,,---,0.23,VWS V14.01,2013-07-01 00:15:00,
2013-06-30 20:20:00,75.3,68.3,29.82,ESE,117,2.0,4.0,79,0.00,,---,0.23,VWS V14.01,2013-07-01 00:20:00,
2013-06-30 20:25:00,75.3,68.3,29.83,ENE,64,0.0,4.0,79,0.00,,---,0.23,VWS V14.01,2013-07-01 00:25:00,
2013-06-30 20:30:00,75.2,68.2,29.83,ESE,108,0.0,2.0,79,0.00,,---,0.23,VWS V14.01,2013-07-01 00:30:00,
2013-06-30 20:35:00,75.2,68.2,29.83,NNW,331,1.0,3.0,79,0.00,,---,0.23,VWS V14.01,2013-07-01 00:35:00,
2013-06-30 20:40:00,75.1,68.2,29.83,ESE,107,2.0,2.0,79,0.00,,---,0.23,VWS V14.01,2013-07-01 00:40:00,
2013-06-30 20:45:00,75.1,68.2,29.83,SE,129,1.0,3.0,79,0.00,,---,0.23,VWS V14.01,2013-07-01 00:45:00,
2013-06-30 20:50:00,75.0,68.1,29.83,ESE,113,0.0,2.0,79,0.00,,---,0.23,VWS V14.01,2013-07-01 00:50:00,
2013-06-30 20:55:00,74.9,67.9,29.83,SE,124,1.0,3.0,79,0.00,,---,0.23,VWS V14.01,2013-07-01 00:55:00,
2013-06-30 21:00:00,74.9,67.9,29.83,ESE,119,1.0,2.0,79,0.00,,---,0.23,VWS V14.01,2013-07-01 01:00:00,
2013-06-30 21:05:00,74.9,67.9,29.83,ESE,113,1.0,3.0,79,0.00,,---,0.23,VWS V14.01,2013-07-01 01:05:00,
2013-06-30 21:10:00,74.9,67.9,29.83,ESE,110,0.0,3.0,79,0.00,,---,0.23,VWS V14.01,2013-07-01 01:10:00,
2013-06-30 21:15:00,74.9,67.9,29.83,SE,136,1.0,3.0,79,0.00,,---,0.23,VWS V14.01,2013-07-01 01:15:00,
2013-06-30 21:20:00,74.9,67.9,29.83,SSE,167,0.0,3.0,79,0.00,,---,0.23,VWS V14.01,2013-07-01 01:20:00,
2013-06-30 21:25:00,74.8,67.9,29.83,East,84,0.0,4.0,79,0.00,,---,0.23,VWS V14.01,2013-07-01 01:25:00,
2013-06-30 21:30:00,74.6,67.7,29.83,South,187,1.0,4.0,79,0.00,,---,0.23,VWS V14.01,2013-07-01 01:30:00,
2013-06-30 21:35:00,74.5,67.6,29.83,SSE,150,1.0,4.0,79,0.00,,---,0.23,VWS V14.01,2013-07-01 01:35:00,
2013-06-30 21:40:00,74.5,67.6,29.83,East,95,0.0,2.0,79,0.00,,---,0.23,VWS V14.01,2013-07-01 01:40:00,
2013-06-30 21:45:00,74.5,67.6,29.84,ENE,69,2.0,3.0,79,0.00,,---,0.23,VWS V14.01,2013-07-01 01:45:00,
2013-06-30 21:50:00,74.5,67.9,29.83,East,100,2.0,3.0,80,0.00,,---,0.23,VWS V14.01,2013-07-01 01:50:00,
2013-06-30 21:56:00,74.5,67.9,29.84,SE,131,0.0,5.0,80,0.00,,---,0.23,VWS V14.01,2013-07-01 01:56:00,
2013-06-30 22:00:00,74.4,67.8,29.84,SW,225,0.0,2.0,80,0.00,,---,0.23,VWS V14.01,2013-07-01 02:00:00,
2013-06-30 22:05:00,74.4,67.8,29.85,ESE,114,0.0,4.0,80,0.00,,---,0.23,VWS V14.01,2013-07-01 02:05:00,
2013-06-30 22:10:00,74.4,67.8,29.85,East,82,1.0,3.0,80,0.00,,---,0.23,VWS V14.01,2013-07-01 02:10:00,
2013-06-30 22:15:00,74.5,67.9,29.85,NE,46,1.0,3.0,80,0.00,,---,0.23,VWS V14.01,2013-07-01 02:15:00,
2013-06-30 22:20:00,74.5,67.9,29.86,ENE,75,0.0,2.0,80,0.00,,---,0.23,VWS V14.01,2013-07-01 02:20:00,
2013-06-30 22:25:00,74.5,67.9,29.86,ENE,67,0.0,4.0,80,0.00,,---,0.23,VWS V14.01,2013-07-01 02:25:00,
2013-06-30 22:30:00,74.5,67.9,29.86,ESE,117,2.0,2.0,80,0.00,,---,0.23,VWS V14.01,2013-07-01 02:30:00,
2013-06-30 22:35:00,74.5,67.9,29.86,East,84,1.0,2.0,80,0.00,,---,0.23,VWS V14.01,2013-07-01 02:35:00,
2013-06-30 22:40:00,74.4,67.8,29.86,East,89,0.0,1.0,80,0.00,,---,0.23,VWS V14.01,2013-07-01 02:40:00,
2013-06-30 22:46:00,74.4,67.8,29.86,NE,45,1.0,2.0,80,0.00,,---,0.23,VWS V14.01,2013-07-01 02:46:00,
2013-06-30 22:50:00,74.4,67.8,29.86,ENE,71,1.0,4.0,80,0.00,,---,0.23,VWS V14.01,2013-07-01 02:50:00,
2013-06-30 22:51:00,74.3,67.7,29.86,WSW,240,3.0,4.0,80,0.00,,---,0.23,VWS V14.01,2013-07-01 02:51:00,
2013-06-30 22:56:00,74.3,67.7,29.86,South,186,0.0,4.0,80,0.00,,---,0.23,VWS V14.01,2013-07-01 02:56:00,
2013-06-30 23:00:00,74.3,67.7,29.86,East,91,0.0,4.0,80,0.00,,---,0.23,VWS V14.01,2013-07-01 03:00:00,
2013-06-30 23:01:00,74.3,67.7,29.86,SSE,156,0.0,0.0,80,0.00,,---,0.23,VWS V14.01,2013-07-01 03:01:00,
2013-06-30 23:06:00,74.2,67.6,29.86,East,82,0.0,1.0,80,0.00,,---,0.23,VWS V14.01,2013-07-01 03:06:00,
2013-06-30 23:10:00,74.2,67.6,29.86,East,80,0.0,1.0,80,0.00,,---,0.23,VWS V14.01,2013-07-01 03:10:00,
2013-06-30 23:11:00,74.1,67.5,29.86,ENE,75,0.0,0.0,80,0.00,,---,0.23,VWS V14.01,2013-07-01 03:11:00,
2013-06-30 23:16:00,74.1,67.5,29.86,ENE,75,0.0,2.0,80,0.00,,---,0.23,VWS V14.01,2013-07-01 03:16:00,
2013-06-30 23:20:00,74.1,67.5,29.86,ENE,75,0.0,2.0,80,0.00,,---,0.23,VWS V14.01,2013-07-01 03:20:00,
2013-06-30 23:21:00,74.0,67.4,29.86,ENE,75,0.0,1.0,80,0.00,,---,0.23,VWS V14.01,2013-07-01 03:21:00,
2013-06-30 23:26:00,74.0,67.4,29.86,ENE,71,0.0,2.0,80,0.00,,---,0.23,VWS V14.01,2013-07-01 03:26:00,
2013-06-30 23:30:00,74.0,67.1,29.86,North,358,0.0,2.0,79,0.00,,---,0.23,VWS V14.01,2013-07-01 03:30:00,
2013-06-30 23:31:00,74.0,67.1,29.86,NE,36,0.0,0.0,79,0.00,,---,0.23,VWS V14.01,2013-07-01 03:31:00,
2013-06-30 23:36:00,74.0,67.1,29.86,South,174,0.0,0.0,79,0.00,,---,0.23,VWS V14.01,2013-07-01 03:36:00,
2013-06-30 23:40:00,74.0,67.1,29.86,SSE,150,0.0,0.0,79,0.00,,---,0.23,VWS V14.01,2013-07-01 03:40:00,
2013-06-30 23:41:00,73.9,67.0,29.86,East,101,0.0,0.0,79,0.00,,---,0.23,VWS V14.01,2013-07-01 03:41:00,
2013-06-30 23:46:00,73.9,67.0,29.86,NW,318,0.0,2.0,79,0.00,,---,0.23,VWS V14.01,2013-07-01 03:46:00,
2013-06-30 23:50:00,73.9,67.0,29.86,ESE,117,0.0,2.0,79,0.00,,---,0.23,VWS V14.01,2013-07-01 03:50:00,
2013-06-30 23:51:00,73.9,67.0,29.86,NNW,347,0.0,1.0,79,0.00,,---,0.23,VWS V14.01,2013-07-01 03:51:00,
2013-06-30 23:56:00,73.9,67.0,29.87,SW,215,0.0,1.0,79,0.00,,---,0.23,VWS V14.01,2013-07-01 03:56:00,